Alice, TX

4:23 PM CST on December 06, 2016 (GMT -0600)
Alice International

Weather History for KALI - March, 2013

Change the Weather History Date:

Saturday, March 9, 2013

  Actual Average Record
Temperature  
Mean Temperature 76 °F -  
Max Temperature 84 °F 73 °F 88 °F (2006)
Min Temperature 69 °F 53 °F 37 °F (1998)
Cooling Degree Days 12    
Growing Degree Days 26 (Base 50)    
Moisture  
Dew Point 64 °F    
Average Humidity 71    
Maximum Humidity 83    
Minimum Humidity 53    
Precipitation  
Precipitation 0.00 in - - ()
Sea Level Pressure  
Sea Level Pressure 29.79 in    
Wind  
Wind Speed 18 mph (SSE)    
Max Wind Speed 26 mph    
Max Gust Speed 36 mph    
Visibility 10 miles    
Events      
Averages and records for this station are not official NWS values.
T = Trace of Precipitation, MM = Missing Value Source: NWS Daily Summary

Daily Weather History Graph

Daily Weather History Graph

Search for Another Location

Airport or City:

Trip Planner

Search our weather history database for the weather conditions in past years. The results will help you decide how hot, cold, wet, or windy it might be!

Date:

Astronomy

Mar. 09, 2013 Rise Set
Actual Time 6:47 AM CST 6:37 PM CST
Civil Twilight 6:24 AM CST 7:00 PM CST
Nautical Twilight 5:57 AM CST 7:28 PM CST
Astronomical Twilight 5:30 AM CST 7:55 PM CST
Moon 5:03 AM CST (3/9) 4:47 PM CST (3/9)
Length of Visible Light 12h 36m
Length of Day
11h 49m
Waning Crescent, 5% of the Moon is Illuminated
Mar 9
Waning Crescent
Mar 11
New
Mar 19
First Quarter
Mar 27
Full
Apr 2
Last Quarter

Hourly Weather History & Observations

Time (CST) Temp. Heat Index Dew Point Humidity Pressure Visibility Wind Dir Wind Speed Gust Speed Precip Events Conditions
12:53 AM 70.0 °F - 62.1 °F 76% 29.96 in 10.0 mi SSE 13.8 mph 25.3 mph N/A   Mostly Cloudy
1:23 AM 69.8 °F - 62.6 °F 78% 29.96 in 10.0 mi SSE 20.7 mph 24.2 mph N/A   Mostly Cloudy
1:53 AM 70.0 °F - 63.0 °F 78% 29.93 in 10.0 mi SSE 20.7 mph 26.5 mph N/A   Mostly Cloudy
2:53 AM 70.0 °F - 63.0 °F 78% 29.90 in 10.0 mi SSE 18.4 mph 26.5 mph N/A   Overcast
3:53 AM 70.0 °F - 64.0 °F 81% 29.89 in 10.0 mi SSE 15.0 mph - N/A   Overcast
4:53 AM 70.0 °F - 64.0 °F 81% 29.88 in 10.0 mi South 13.8 mph - N/A   Overcast
5:53 AM 70.0 °F - 64.0 °F 81% 29.87 in 10.0 mi SSE 13.8 mph - N/A   Overcast
6:53 AM 70.0 °F - 64.0 °F 81% 29.88 in 10.0 mi SSE 12.7 mph - N/A   Overcast
7:53 AM 70.0 °F - 64.0 °F 81% 29.89 in 10.0 mi SSE 11.5 mph - N/A   Overcast
8:53 AM 73.9 °F - 64.9 °F 73% 29.89 in 10.0 mi SSE 17.3 mph - N/A   Overcast
9:53 AM 75.0 °F - 64.9 °F 71% 29.88 in 10.0 mi South 16.1 mph - N/A   Overcast
10:53 AM 78.1 °F - 64.9 °F 64% 29.86 in 10.0 mi SSE 20.7 mph 27.6 mph N/A   Overcast
11:21 AM 78.8 °F - 64.4 °F 61% 29.85 in 10.0 mi SSE 25.3 mph 31.1 mph N/A   Overcast
11:53 AM 80.1 °F 81.7 °F 64.0 °F 58% 29.82 in 10.0 mi SSE 25.3 mph 33.4 mph N/A   Overcast
12:03 PM 80.6 °F 82.3 °F 64.4 °F 58% 29.82 in 10.0 mi South 21.9 mph 29.9 mph N/A   Overcast
12:11 PM 78.8 °F - 64.4 °F 61% 29.82 in 10.0 mi South 23.0 mph 31.1 mph N/A   Overcast
12:53 PM 80.1 °F 81.7 °F 64.0 °F 58% 29.79 in 10.0 mi South 23.0 mph 32.2 mph N/A   Overcast
1:53 PM 82.9 °F 84.4 °F 64.0 °F 53% 29.74 in 10.0 mi SE 24.2 mph 28.8 mph N/A   Overcast
2:53 PM 84.0 °F 85.8 °F 64.9 °F 53% 29.69 in 10.0 mi SSE 23.0 mph 34.5 mph N/A   Mostly Cloudy
3:53 PM 84.0 °F 85.8 °F 64.9 °F 53% 29.68 in 10.0 mi SE 23.0 mph 31.1 mph N/A   Overcast
4:53 PM 81.0 °F 82.7 °F 64.9 °F 58% 29.65 in 10.0 mi SE 26.5 mph 35.7 mph N/A   Overcast
5:53 PM 75.9 °F - 64.0 °F 67% 29.66 in 10.0 mi SE 25.3 mph 33.4 mph N/A   Overcast
6:53 PM 73.0 °F - 64.0 °F 73% 29.68 in 10.0 mi SE 18.4 mph 26.5 mph N/A   Overcast
7:53 PM 71.1 °F - 64.0 °F 78% 29.69 in 10.0 mi SE 13.8 mph - N/A   Overcast
8:10 PM 69.8 °F - 64.4 °F 83% 29.69 in 10.0 mi SE 13.8 mph - N/A   Overcast
8:53 PM 72.0 °F - 64.9 °F 78% 29.69 in 10.0 mi SSE 18.4 mph 27.6 mph N/A   Overcast
9:53 PM 70.0 °F - 63.0 °F 78% 29.70 in 10.0 mi SSE 16.1 mph 23.0 mph N/A   Mostly Cloudy
10:16 PM 69.8 °F - 62.6 °F 78% 29.69 in 10.0 mi SSE 18.4 mph - N/A   Scattered Clouds
10:51 PM 69.8 °F - 62.6 °F 78% 29.67 in 10.0 mi SSE 19.6 mph 25.3 mph N/A   Mostly Cloudy
10:53 PM 70.0 °F - 63.0 °F 78% 29.67 in 10.0 mi SSE 16.1 mph 25.3 mph N/A   Mostly Cloudy
11:53 PM 72.0 °F - 64.0 °F 76% 29.64 in 10.0 mi South 19.6 mph 32.2 mph N/A   Overcast